Location: Peterborough
(44.3091°N, 78.3197°W)
Time: 04:20:45
(UTC-04:00)

Tiros 1 despin weight - Pass Details

Date: 23 March 2023
Orbit: 586 x 632 km, 48.2° (Epoch: 08 June)

Event Time Altitude Azimuth Distance (km) Brightness Sun altitude
Rises 23:05:05 0° 240° (WSW) 2,802 - -35.4°
Reaches altitude 10° 23:07:21 10° 239° (WSW) 1,907 - -35.7°
Maximum altitude 23:11:42 75° 155° (SSE) 615 - -36.2°
Drops below altitude 10° 23:16:08 10° 69° (ENE) 1,936 - -36.7°
Sets 23:18:26 0° 68° (ENE) 2,849 - -37.0°
